{"data":{"norad_id":58995,"epoch":"2026-09-19T20:55:43.550112Z","epoch_age_seconds":72489,"freshness":"FRESH","line1":"1 58995U 24035A   26262.87203183 -.00000362  00000+0  00000+0 0  9990","line2":"2 58995   0.0169 153.9717 0001151  17.7819 253.9251  1.00273026  9533","mean_motion":1.00273026,"eccentricity":0.0001151,"inclination_deg":0.0169,"raan_deg":153.9717,"arg_perigee_deg":17.7819,"mean_anomaly_deg":253.9251,"bstar":0,"rev_number":953,"period_min":1436.0791305929,"perigee_km":35781.393946823,"apogee_km":35791.100188035,"semimajor_km":42164.384067429,"source":"CELESTRAK","updated_at":"2026-09-20T09:00:35.336328Z"}}